This is the latest recevied weather packets stored in our database for station/object DB0SMU-12. If no packets are shown the sender has not sent any weather packets the latest 10 day(s).
| Time | Temp. | Humidity | Pressure | Rain* | Wind** | Luminosity | Snow |
|---|---|---|---|---|---|---|---|
| 1778141946 | 11.11° C | 68% | 1015.3 hPa | 0 mm | - | - | - |
| 1778141765 | 10.56° C | 68% | 1015.1 hPa | 0 mm | - | - | - |
| 1778141584 | 10.56° C | 68% | 1015.1 hPa | 0 mm | - | - | - |
| 1778141403 | 10.56° C | 69% | 1015.1 hPa | 0 mm | - | - | - |
| 1778141222 | 10.56° C | 69% | 1015.1 hPa | 0 mm | - | - | - |
| 1778140679 | 10.56° C | 67% | 1014.9 hPa | 0 mm | - | - | - |
| 1778140499 | 10.56° C | 67% | 1015 hPa | 0 mm | - | - | - |
| 1778140318 | 10.56° C | 67% | 1014.9 hPa | 0 mm | - | - | - |
| 1778140137 | 10.56° C | 66% | 1014.9 hPa | 0 mm | - | - | - |
| 1778139956 | 10.56° C | 65% | 1014.9 hPa | 0 mm | - | - | - |
| 1778139775 | 11.11° C | 65% | 1014.8 hPa | 0 mm | - | - | - |
| 1778139594 | 11.11° C | 67% | 1014.8 hPa | 0 mm | - | - | - |
| 1778139413 | 11.11° C | 71% | 1014.7 hPa | 0 mm | - | - | - |
| 1778139232 | 10.56° C | 72% | 1014.7 hPa | 0 mm | - | - | - |
| 1778139051 | 11.11° C | 70% | 1014.6 hPa | 0 mm | - | - | - |
| 1778138870 | 10.56° C | 71% | 1014.6 hPa | 0 mm | - | - | - |
| 1778138690 | 10.56° C | 71% | 1014.7 hPa | 0 mm | - | - | - |
| 1778138509 | 10.56° C | 72% | 1014.6 hPa | 0 mm | - | - | - |
| 1778138328 | 10.56° C | 71% | 1014.6 hPa | 0 mm | - | - | - |
| 1778138147 | 10.56° C | 73% | 1014.6 hPa | 0 mm | - | - | - |
| 1778137966 | 10.56° C | 72% | 1014.5 hPa | 0 mm | - | - | - |
| 1778137782 | 11.11° C | 71% | 1014.5 hPa | 0 mm | - | - | - |
| 1778137599 | 11.11° C | 71% | 1014.5 hPa | 0 mm | - | - | - |
| 1778137418 | 11.11° C | 71% | 1014.4 hPa | 0 mm | - | - | - |
| 1778137237 | 11.11° C | 70% | 1014.5 hPa | 0 mm | - | - | - |
* Rain latest hour (hover to see other rain measurements)
** Current wind speed in m/s (hover to see current wind gust speed)